Location: Unspecified
(45.3712°N, 0.6436°E)
Time: 00:02:42
(UTC+01:00)

Tiangong 2 - Visible Passes

Search period start: 16 February 2019 00:00
Search period end: 26 February 2019 00:00
Orbit: 381 x 390 km, 42.8° (Epoch: 15 February)

Date Brightness Start Highest point End Pass type
(mag) Time Alt. Az. Time Alt. Az. Time Alt. Az.
16 Feb 2.0 19:57:16 10° W 20:00:16 41° SSW 20:01:01 34° SSE visible
17 Feb 1.8 18:58:02 10° W 19:01:07 49° S 19:04:11 10° ESE visible
17 Feb 3.3 20:35:01 10° WSW 20:36:58 21° SW 20:36:58 21° SW visible
18 Feb 2.6 19:35:36 10° W 19:38:27 31° SSW 19:40:44 14° SE visible
19 Feb 3.7 20:13:45 10° WSW 20:15:35 15° SSW 20:16:51 12° S visible
20 Feb 3.3 19:14:03 10° WSW 19:16:34 22° SSW 19:19:04 10° SSE visible
